EW8359 Weather Reports


time (UTC)temp
C
wind
direction
speed
KPH
gust
KPH
rain 1hr
cm
rain 24hr
cm
rain mn
cm
humidity
%
barometer
mb
20260510200049 13 342 0.0 0.0 0.94 1.78 0.99 90 1009.3
20260510194549 13 308 0.0 12.9 0.91 1.93 0.97 90 1009.4
20260510193101 14 163 0.0 19.3 0.86 1.88 0.91 83 1009.7
20260510191547 18 111 0.0 1.6 0.00 1.02 0.05 70 1008.8
20260510190046 19 73 0.0 8.0 0.00 1.02 0.05 66 1008.3
20260510184544 20 179 0.0 9.7 0.00 1.32 0.05 65 1008.6
20260510183048 20 234 6.4 17.7 0.00 1.32 0.05 58 1008.7
20260510181541 20 103 0.0 12.9 0.00 1.32 0.05 59 1008.8
20260510180048 20 149 0.0 11.3 0.00 1.32 0.05 59 1009.2
20260510174536 20 167 0.0 11.3 0.00 1.55 0.05 61 1009.5
20260510173032 19 199 0.0 9.7 0.00 1.55 0.05 64 1009.6
20260510171527 18 209 3.2 14.5 0.00 1.55 0.05 65 1009.6
20260510170023 18 211 0.0 8.0 0.00 1.55 0.05 68 1009.9
20260510164537 17 189 0.0 9.7 0.00 1.60 0.05 68 1009.9
20260510163020 17 133 0.0 8.0 0.00 1.60 0.05 72 1010.1
20260510161515 17 184 0.0 1.6 0.00 1.60 0.05 76 1010.2
20260510160013 16 216 0.0 4.8 0.00 1.60 0.05 77 1010.1
20260510154509 16 146 0.0 8.0 0.00 1.60 0.05 79 1010.3
20260510153005 14 294 0.0 4.8 0.00 1.60 0.05 82 1010.5
20260510151505 14 114 0.0 6.4 0.00 1.60 0.05 83 1011.0
20260510150001 14 113 0.0 6.4 0.00 1.60 0.05 87 1010.8
20260510144558 13 276 0.0 3.2 0.00 1.60 0.05 87 1010.8
20260510143058 13 188 0.0 1.6 0.00 1.60 0.05 88 1010.6
20260510141554 12 150 0.0 6.4 0.00 1.60 0.05 89 1010.7
20260510140050 12 137 0.0 6.4 0.00 1.60 0.05 92 1010.8
20260510134548 12 154 1.6 11.3 0.00 1.60 0.05 96 1011.0
20260510133047 12 171 0.0 3.2 0.00 1.60 0.05 96 1010.5
20260510131544 11 135 0.0 4.8 0.00 1.60 0.05 96 1010.8
20260510130039 10 150 0.0 4.8 0.00 1.60 0.05 96 1010.8
20260510124557 10 151 0.0 0.0 0.00 1.60 0.05 96 1010.9
20260510123035 10 262 0.0 4.8 0.00 1.60 0.05 96 1011.0
20260510121533 10 117 0.0 3.2 0.00 1.60 0.05 96 1011.3
20260510120033 9 190 0.0 3.2 0.00 1.60 0.05 96 1010.7
20260510114528 9 206 0.0 0.0 0.00 1.60 0.05 96 1010.8
20260510113033 9 206 0.0 0.0 0.00 1.60 0.05 96 1010.6
20260510111531 8 206 0.0 3.2 0.00 1.60 0.05 96 1010.5
20260510110021 8 101 0.0 0.0 0.00 1.60 0.05 96 1010.2
20260510104524 8 5 0.0 0.0 0.00 1.60 0.05 96 1009.9
20260510103017 8 5 0.0 0.0 0.00 1.60 0.05 96 1009.8
20260510101518 8 5 0.0 0.0 0.00 1.60 0.05 96 1009.7
20260510100015 7 5 0.0 0.0 0.03 1.60 0.05 96 1010.0
20260510094512 7 5 0.0 0.0 0.03 1.60 0.05 96 1009.6
20260510093012 7 5 0.0 0.0 0.03 1.60 0.05 96 1009.7
20260510091522 7 5 0.0 0.0 0.03 1.60 0.05 96 1009.7
20260510090013 7 5 0.0 0.0 0.00 1.57 0.03 96 1009.8
20260510084509 7 5 0.0 0.0 0.00 1.57 0.03 96 1009.8
20260510083008 7 5 0.0 0.0 0.00 1.57 0.03 96 1009.8
20260510081522 7 5 0.0 0.0 0.00 1.57 0.03 96 1009.6
20260510080009 7 5 0.0 0.0 0.00 1.57 0.03 96 1009.9
20260510074507 7 5 0.0 0.0 0.00 1.57 0.03 96 1009.9
20260510073003 7 5 0.0 0.0 0.00 1.57 0.03 96 1010.0
20260510071502 7 5 0.0 0.0 0.03 1.57 0.03 96 1009.6
20260510070108 7 5 0.0 0.0 0.03 1.57 0.03 96 1009.7
20260510064610 7 5 0.0 0.0 0.03 1.57 0.03 96 1009.8
20260510063056 7 5 0.0 0.0 0.03 1.57 0.03 96 1009.9
20260510061554 7 5 0.0 0.0 0.00 1.55 0.00 96 1010.3
20260510060052 7 5 0.0 0.0 0.00 1.55 0.00 96 1010.4
20260510054549 7 5 0.0 0.0 0.00 1.55 0.00 96 1010.4
20260510053048 7 5 0.0 0.0 0.00 1.55 0.00 95 1010.7
20260510051546 7 5 0.0 0.0 0.00 1.55 0.00 95 1010.8
20260510050043 6 5 0.0 0.0 0.00 1.55 0.00 95 1010.6
20260510044548 6 5 0.0 0.0 0.00 1.55 0.00 95 1010.7
20260510043038 6 5 0.0 0.0 0.00 1.55 0.00 95 1010.8
20260510041539 6 5 0.0 0.0 0.03 1.55 0.00 95 1011.0
20260510040034 6 5 0.0 0.0 0.03 1.55 0.00 95 1010.8
20260510034532 6 5 0.0 0.0 0.05 1.55 1.55 95 1011.0
20260510033030 6 5 0.0 0.0 0.08 1.55 1.55 95 1011.1
20260510031535 6 5 0.0 0.0 0.10 1.52 1.52 95 1011.4
20260510030029 6 5 0.0 0.0 0.20 1.52 1.52 95 1011.3
20260510024533 6 68 0.0 0.0 0.20 1.50 1.50 95 1011.5
20260510023028 6 49 0.0 0.0 0.18 1.45 1.45 95 1011.4
20260510021529 6 59 0.0 0.0 0.15 1.42 1.42 95 1011.6
20260510020027 6 59 0.0 0.0 0.05 1.32 1.32 95 1011.8
20260510014530 6 59 0.0 0.0 0.03 1.30 1.30 95 1011.9
20260510013026 6 59 0.0 0.0 0.05 1.30 1.30 95 1011.9
20260510011528 6 59 0.0 0.0 0.03 1.27 1.27 95 1011.7
20260510010026 6 61 0.0 0.0 0.03 1.27 1.27 95 1011.5
20260510004525 6 65 0.0 0.0 0.03 1.27 1.27 95 1011.7
20260510003034 6 67 0.0 0.0 0.03 1.24 1.24 95 1011.4
20260510001525 6 9 0.0 3.2 0.05 1.24 1.24 95 1011.2
20260510000026 6 53 0.0 0.0 0.05 1.24 1.24 94 1011.1
20260509234535 6 53 0.0 0.0 0.08 1.24 1.24 94 1011.2
20260509233034 6 36 0.0 0.0 0.13 1.22 1.22 94 1011.3
20260509231524 6 59 0.0 0.0 0.15 1.19 1.19 94 1011.4
20260509230025 6 25 0.0 0.0 0.20 1.19 1.19 94 1011.5
20260509224518 6 25 0.0 0.0 0.20 1.17 1.17 93 1011.5
20260509223018 6 37 0.0 0.0 0.15 1.09 1.09 93 1011.6
20260509221517 6 301 0.0 0.0 0.15 1.04 1.04 93 1011.6
20260509220020 6 144 0.0 1.6 0.18 0.99 0.99 93 1011.8
20260509214516 6 26 0.0 0.0 0.15 0.97 0.97 93 1011.9
20260509213016 7 20 0.0 4.8 0.15 0.94 0.94 93 1012.1
20260509211515 7 267 0.0 0.0 0.10 0.89 0.89 92 1012.0
20260509210014 7 57 0.0 0.0 0.05 0.81 0.81 93 1012.0
20260509204510 7 55 0.0 1.6 0.05 0.81 0.81 93 1011.9
20260509203008 7 59 0.0 1.6 0.08 0.79 0.79 93 1012.1
20260509201512 7 86 0.0 6.4 0.13 0.79 0.79 93 1012.0